Riverton, IL (62561)

12:44 AM CST on February 24, 2017 (GMT -0600)
Gietl Park / Northgate Subdivision | | Change Station

Elev 591 ft 39.83 °N, 89.61 °W | Updated 25 seconds ago

Partly Cloudy
Partly Cloudy
59.5 °F
Feels Like 59.5 °F
N
3.2
Wind Variable Wind from SSE

Today
High -- | Low -- °F
--% Chance of Precip.
Yesterday
High -- | Low -- °F
Precip. -- in
Pressure 29.52 in
Visibility 10.0 miles
Clouds Few 11000 ft
Dew Point 55 °F
Humidity 85%
Rainfall 0.00 in
Snow Depth Not available.
6:38 AM 5:44 PM
Waning Crescent, 6% visible
METAR KSPI 240552Z AUTO 15010KT 10SM FEW110 16/12 A2952 RMK AO2 SLP994 T01610122 10161 20139 401610056 58013
Pressure 29.52 in
Visibility 10.0 miles
Clouds Few 11000 ft
Dew Point 55 °F
Humidity 85%
Rainfall 0.00 in
Snow Depth Not available.
6:38 AM 5:44 PM
Waning Crescent, 6% visible
METAR KSPI 240552Z AUTO 15010KT 10SM FEW110 16/12 A2952 RMK AO2 SLP994 T01610122 10161 20139 401610056 58013

Get Your Daily Forecast Email!

Thanks for signing up!

Be on the lookout for a verification email in your inbox.

You'll start receiving the daily forecast at 8 AM.

×

10-Day Weather Forecast

Almanac

Astronomy

Feb. 24, 2017 Rise Set
Actual Time
Civil Twilight
Nautical Twilight
Astronomical Twilight
Moon
Length of Visible Light
Length of Day
Tomorrow will be .
, % of the Moon is Illuminated

Today's Extremes

State Highs State Lows

Community

WunderPhotos

Upload Photos

1,962,540 photos uploaded!

WunderBlog® & News

Nearby

Air Quality

  Air Quality AQ Index Pollutant
Not available.

Snow Depth

Station Depth Elevation

Earthquake Activity

City Distance Mag. Time & Date
Minimum magnitude displayed is 2.5.

Coastal Water Temperatures

Place Temperature

Stations

Nearby Weather Stations

Station Location Temp. Windchill Dew Point Humidity Wind Precip. Elev Updated Type
                   

Watches & Warnings

There are currently no watches in effect.